Regional Weather Roundup
Issued by NWS

Home | Current Version | Previous Version | Text Only | Print | Product List | Glossary On
Versions: 1 2 3 4 5 6 7 8 9 10 11 12 13 14 15 16 17 18 19 20 21 22 23 24 25 26 27 28 29 30 31 32 33 34 35 36 37 38 39 40 41 42 43 44 45 46 47 48 49 50
000
ASUS43 KLSX 260807
RWRMO

WEATHER SUMMARY FOR MISSOURI
NATIONAL WEATHER SERVICE SPRINGFIELD MO
200 AM CST MON JAN 26 2015

NOTE: "FAIR" INDICATES FEW OR NO CLOUDS BELOW 12,000 FEET WITH NO
       SIGNIFICANT WEATHER AND/OR OBSTRUCTIONS TO VISIBILITY.
       CURRENT SKY AND/OR WEATHER CONDITIONS ARE NOT AVAILABLE FOR
       CHILLICOTHE AND FARMINGTON.

MOZ001>031-035>038-043-044-053-054-260900-
...NORTHERN AND WESTERN MISSOURI...

CITY           SKY/WX    TMP DP  RH WIND       PRES   REMARKS
KANSAS CTY INT CLEAR     29  27  92 CALM      30.09S
KANSAS C DTWN  CLEAR     28  26  92 CALM      30.10S
LEE`S SUMMIT   CLEAR     29  26  89 CALM      30.09S
ST JOSEPH      PTCLDY    24  23  96 S7        30.09F WCI  16
CHILLICOTHE      N/A     28  25  88 CALM      30.08F
KIRKSVILLE     CLOUDY    30  26  85 CALM      30.06S

$$
MOZ066>068-077>081-088>096-101>105-260900-
...SOUTHWEST MISSOURI...

CITY           SKY/WX    TMP DP  RH WIND       PRES   REMARKS
SPRINGFIELD    CLOUDY    34  28  79 NW10      30.08S WCI  26
JOPLIN         CLEAR     32  27  81 CALM      30.13R

$$
MOZ032>034-039>042-045>050-055>058-069>072-260900-
...CENTRAL MISSOURI...

CITY           SKY/WX    TMP DP  RH WIND       PRES   REMARKS
COLUMBIA       CLOUDY    30  26  85 N7        30.07S WCI  23
JEFFERSON CITY CLOUDY    32  28  85 NW6       30.09S WCI  26
ROLLA          CLOUDY    29  26  89 NW10      30.03S WCI  20
SEDALIA        CLOUDY    33  28  81 CALM      30.09F
WHITEMAN AFB   CLEAR     30  26  86 W5        30.08S WCI  25
WARRENSBURG    MOCLDY    28  27  93 SW3       30.10R
OSAGE BEACH    CLOUDY    32  27  80 NW7       30.08S WCI  26

$$
MOZ051-052-059>065-260900-
...EAST CENTRAL MISSOURI...

CITY           SKY/WX    TMP DP  RH WIND       PRES   REMARKS
ST LOUIS INTL  MOCLDY    29  20  69 NW12      30.04R WCI  19
SPIRIT OF STL  MOCLDY    29  21  72 NW8G21    30.05R WCI  21
ST CHARLES     MOCLDY    27  20  75 NW10      30.05R WCI  17

$$
MOZ072>076-082>087-097>100-106>115-260900-
...SOUTH CENTRAL AND SOUTHEAST MISSOURI...

CITY           SKY/WX    TMP DP  RH WIND       PRES   REMARKS
CAPE GIRARDEAU CLOUDY    33  29  85 N13       30.00R WCI  24
FARMINGTON     CLOUDY    30  27  86 MISG      30.03R
POPLAR BLUFF   CLOUDY    36  29  75 N13       30.00R WCI  27
WEST PLAINS    CLOUDY    33  29  85 NW6       30.05R WCI  28

$$



USA.gov is the U.S. government's official web portal to all federal, state and local government web resources and services.